Time,TemperatureF,DewpointF,PressureIn,WindDirection,WindDirectionDegrees,WindSpeedMPH,WindSpeedGustMPH,Humidity,HourlyPrecipIn,Conditions,Clouds,dailyrainin,SoftwareType,DateUTC
2013-04-07 00:00:00,39.0,21.0,-100.00,West,269,6.0,8.0,47,0.00,,,0.01,,2013-04-07 06:00:00,
2013-04-07 00:42:00,39.0,21.0,-100.00,West,269,6.0,8.0,47,0.00,,,0.01,,2013-04-07 06:42:00,
2013-04-07 00:52:00,39.0,21.0,-100.00,West,269,6.0,8.0,47,0.00,,,0.01,,2013-04-07 06:52:00,
2013-04-07 01:00:00,39.0,22.0,-100.00,WNW,286,8.0,11.0,51,0.00,,,0.01,,2013-04-07 07:00:00,
2013-04-07 01:42:00,39.0,22.0,-100.00,WNW,286,8.0,11.0,51,0.00,,,0.01,,2013-04-07 07:42:00,
2013-04-07 01:52:00,39.0,22.0,-100.00,WNW,286,8.0,11.0,51,0.00,,,0.01,,2013-04-07 07:52:00,
2013-04-07 02:00:00,37.0,22.0,-100.00,West,269,3.0,4.0,55,0.00,,,0.01,,2013-04-07 08:00:00,
2013-04-07 02:42:00,37.0,22.0,-100.00,West,269,3.0,4.0,55,0.00,,,0.01,,2013-04-07 08:42:00,
2013-04-07 02:53:00,37.0,22.0,-100.00,West,269,3.0,4.0,55,0.00,,,0.01,,2013-04-07 08:53:00,
2013-04-07 03:00:00,35.0,23.0,-100.00,WSW,240,5.0,5.0,59,0.00,,,0.01,,2013-04-07 09:00:00,
2013-04-07 03:43:00,35.0,23.0,-100.00,WSW,240,5.0,5.0,59,0.00,,,0.01,,2013-04-07 09:43:00,
2013-04-07 03:53:00,35.0,23.0,-100.00,WSW,240,5.0,5.0,59,0.00,,,0.01,,2013-04-07 09:53:00,
2013-04-07 04:00:00,39.0,17.0,-100.00,West,260,5.0,9.0,40,0.00,,,0.01,,2013-04-07 10:00:00,
2013-04-07 04:42:00,39.0,17.0,-100.00,West,260,5.0,9.0,40,0.00,,,0.01,,2013-04-07 10:42:00,
2013-04-07 04:53:00,39.0,17.0,-100.00,West,260,5.0,9.0,40,0.00,,,0.01,,2013-04-07 10:53:00,
2013-04-07 05:00:00,37.0,18.0,-100.00,WSW,258,4.0,6.0,45,0.00,,,0.01,,2013-04-07 11:00:00,
2013-04-07 05:42:00,37.0,18.0,-100.00,WSW,258,4.0,6.0,45,0.00,,,0.01,,2013-04-07 11:42:00,
2013-04-07 05:53:00,37.0,18.0,-100.00,WSW,258,4.0,6.0,45,0.00,,,0.01,,2013-04-07 11:53:00,
2013-04-07 06:00:00,34.0,18.0,-100.00,WSW,251,4.0,7.0,51,0.00,,,0.01,,2013-04-07 12:00:00,
2013-04-07 06:42:00,34.0,18.0,-100.00,WSW,251,4.0,7.0,51,0.00,,,0.01,,2013-04-07 12:42:00,
2013-04-07 06:53:00,34.0,18.0,-100.00,WSW,251,4.0,7.0,51,0.00,,,0.01,,2013-04-07 12:53:00,
2013-04-07 07:00:00,35.0,17.0,-100.00,West,260,6.0,8.0,47,0.00,,,0.01,,2013-04-07 13:00:00,
2013-04-07 07:42:00,35.0,17.0,-100.00,West,260,6.0,8.0,47,0.00,,,0.01,,2013-04-07 13:42:00,
2013-04-07 07:53:00,35.0,17.0,-100.00,West,260,6.0,8.0,47,0.00,,,0.01,,2013-04-07 13:53:00,
2013-04-07 08:43:00,38.0,17.0,-100.00,WSW,253,7.0,9.0,42,0.00,,,0.01,,2013-04-07 14:43:00,
2013-04-07 08:53:00,38.0,17.0,-100.00,WSW,253,7.0,9.0,42,0.00,,,0.01,,2013-04-07 14:53:00,
2013-04-07 09:43:00,42.0,16.0,-100.00,West,269,4.0,7.0,35,0.00,,,0.01,,2013-04-07 15:43:00,
2013-04-07 09:54:00,42.0,16.0,-100.00,West,269,4.0,7.0,35,0.00,,,0.01,,2013-04-07 15:54:00,
2013-04-07 10:00:00,42.0,19.0,-100.00,SSW,205,4.0,6.0,39,0.00,,,0.01,,2013-04-07 16:00:00,
2013-04-07 10:42:00,42.0,19.0,-100.00,SSW,205,4.0,6.0,39,0.00,,,0.01,,2013-04-07 16:42:00,
2013-04-07 10:54:00,42.0,19.0,-100.00,SSW,205,4.0,6.0,39,0.00,,,0.01,,2013-04-07 16:54:00,
2013-04-07 11:42:00,44.0,23.0,-100.00,WSW,253,7.0,13.0,43,0.00,,,0.01,,2013-04-07 17:42:00,
2013-04-07 11:53:00,44.0,23.0,-100.00,WSW,253,7.0,13.0,43,0.00,,,0.01,,2013-04-07 17:53:00,
2013-04-07 12:00:00,46.0,23.0,-100.00,SW,217,13.0,22.0,40,0.00,,,0.00,,2013-04-07 18:00:00,
2013-04-07 12:42:00,46.0,23.0,-100.00,SW,217,13.0,22.0,40,0.00,,,0.00,,2013-04-07 18:42:00,
2013-04-07 12:52:00,46.0,23.0,-100.00,SW,217,13.0,22.0,40,0.00,,,0.00,,2013-04-07 18:52:00,
2013-04-07 13:00:00,48.0,21.0,-100.00,SW,229,11.0,20.0,34,0.00,,,0.00,,2013-04-07 19:00:00,
2013-04-07 13:42:00,48.0,21.0,-100.00,SW,229,11.0,20.0,34,0.00,,,0.00,,2013-04-07 19:42:00,
2013-04-07 13:53:00,48.0,21.0,-100.00,SW,229,11.0,20.0,34,0.00,,,0.00,,2013-04-07 19:53:00,
2013-04-07 14:00:00,43.0,28.0,-100.00,SW,235,19.0,26.0,54,0.00,,,0.00,,2013-04-07 20:00:00,
2013-04-07 14:43:00,43.0,28.0,-100.00,SW,235,19.0,26.0,54,0.00,,,0.00,,2013-04-07 20:43:00,
2013-04-07 14:53:00,43.0,28.0,-100.00,SW,235,19.0,26.0,54,0.00,,,0.00,,2013-04-07 20:53:00,
2013-04-07 15:00:00,44.0,22.0,-100.00,SW,228,19.0,24.0,41,0.00,,,0.00,,2013-04-07 21:00:00,
2013-04-07 15:43:00,44.0,22.0,-100.00,SW,228,19.0,24.0,41,0.00,,,0.00,,2013-04-07 21:43:00,
2013-04-07 15:54:00,44.0,22.0,-100.00,SW,228,19.0,24.0,41,0.00,,,0.00,,2013-04-07 21:54:00,
2013-04-07 16:00:00,42.0,28.0,-100.00,WSW,251,12.0,19.0,58,0.00,,,0.00,,2013-04-07 22:00:00,
2013-04-07 16:43:00,42.0,28.0,-100.00,WSW,251,12.0,19.0,58,0.00,,,0.00,,2013-04-07 22:43:00,
2013-04-07 16:53:00,42.0,28.0,-100.00,WSW,251,12.0,19.0,58,0.00,,,0.00,,2013-04-07 22:53:00,
2013-04-07 17:00:00,46.0,21.0,-100.00,WSW,240,18.0,26.0,37,0.01,,,0.01,,2013-04-07 23:00:00,
2013-04-07 17:42:00,46.0,21.0,-100.00,WSW,240,18.0,26.0,37,0.01,,,0.01,,2013-04-07 23:42:00,
2013-04-07 17:52:00,46.0,21.0,-100.00,WSW,240,18.0,26.0,37,0.01,,,0.01,,2013-04-07 23:52:00,
2013-04-07 18:42:00,37.0,30.0,-100.00,SW,234,16.0,20.0,77,-99.99,,,0.00,,2013-04-08 00:42:00,
2013-04-07 18:52:00,37.0,30.0,-100.00,SW,234,16.0,20.0,77,-99.99,,,0.00,,2013-04-08 00:52:00,
2013-04-07 19:00:00,35.0,32.0,-100.00,WSW,247,19.0,24.0,88,0.01,,,0.01,,2013-04-08 01:00:00,
2013-04-07 19:43:00,35.0,32.0,-100.00,WSW,247,19.0,24.0,88,0.01,,,0.01,,2013-04-08 01:43:00,
2013-04-07 19:55:00,35.0,32.0,-100.00,WSW,247,19.0,24.0,88,0.01,,,0.01,,2013-04-08 01:55:00,
2013-04-07 20:00:00,32.0,31.0,-100.00,WSW,240,22.0,31.0,95,0.00,,,0.01,,2013-04-08 02:00:00,
2013-04-07 20:45:00,32.0,31.0,-100.00,WSW,240,22.0,31.0,95,0.00,,,0.01,,2013-04-08 02:45:00,
2013-04-07 20:53:00,32.0,31.0,-100.00,WSW,240,22.0,31.0,95,0.00,,,0.01,,2013-04-08 02:53:00,
2013-04-07 21:00:00,34.0,29.0,-100.00,West,259,8.0,10.0,81,0.00,,,0.01,,2013-04-08 03:00:00,
2013-04-07 21:46:00,34.0,29.0,-100.00,West,259,8.0,10.0,81,0.00,,,0.01,,2013-04-08 03:46:00,
2013-04-07 21:55:00,34.0,29.0,-100.00,West,259,8.0,10.0,81,0.00,,,0.01,,2013-04-08 03:55:00,
2013-04-07 22:00:00,33.0,31.0,-100.00,WSW,241,10.0,13.0,94,0.01,,,0.02,,2013-04-08 04:00:00,
2013-04-07 22:43:00,33.0,31.0,-100.00,WSW,241,10.0,13.0,94,0.01,,,0.02,,2013-04-08 04:43:00,
2013-04-07 22:52:00,33.0,31.0,-100.00,WSW,241,10.0,13.0,94,0.01,,,0.02,,2013-04-08 04:52:00,
2013-04-07 23:00:00,34.0,30.0,-100.00,SW,229,9.0,15.0,85,0.00,,,0.02,,2013-04-08 05:00:00,
2013-04-07 23:42:00,34.0,30.0,-100.00,SW,229,9.0,15.0,85,0.00,,,0.02,,2013-04-08 05:42:00,
2013-04-07 23:52:00,34.0,30.0,-100.00,SW,229,9.0,15.0,85,0.00,,,0.02,,2013-04-08 05:52:00,